World > North America > United States > Illinois > Waukegan   City of Waukegan, IL

Waukegan, IL Hourly Weather Updates

Feedback E-mail the Weather

Quick Clicks

Waukegan, IL Weather Maps

°F °C°F °C
Waukegan Weather Map
UTC Time: 4/22/2024, 21:32
Your Time:

Waukegan, IL Regional Weather

Expires:202404222200;;204395
ASUS43 KLOT 222110
RWRIL 

ILLINOIS REGIONAL WEATHER ROUNDUP
NATIONAL WEATHER SERVICE CHICAGO/ROMEOVILLE IL
400 PM CDT MON APR 22 2024

NOTE: "FAIR" INDICATES FEW OR NO CLOUDS BELOW 12,000 FEET WITH NO
SIGNIFICANT WEATHER AND/OR OBSTRUCTIONS TO VISIBILITY.

* THESE STATIONS ARE NOT UNDER NWS QUALITY CONTROL. THEY ALSO MAY NOT
  REPORT WEATHER SUCH AS PRECIPITATION OR FOG.


ILZ005-006-012>014-019>023-222200-
NORTHEAST ILLINOIS
  
CITY           SKY/WX    TMP DP  RH WIND       PRES   REMARKS
CHICAGO-OHARE  PTSUNNY   66  24  20 SW23G32   29.93F TC  19           
CHICAGO-MIDWAY CLOUDY    67  24  19 SW20G29   29.96F TC  19           
AURORA         PTSUNNY   65  27  23 S21G28    29.94F TC  18           
JOLIET*        PTSUNNY   67  28  23 SW15G23   29.97F TC  20           
WAUKEGAN       PTSUNNY   66  26  22 SW20G31   29.91F TC  19           
DUPAGE AIRPORT PTSUNNY   65  27  23 SW17G31   29.94F TC  18           
KANKAKEE*      PTSUNNY   65  24  21 SW20G25   30.02F TC  19           
WHEELING       PTSUNNY   65  23  20 SW18G29   29.95F TC  18           
MORRIS*        PTSUNNY   67  29  24 SW17G23   29.96F TC  19           
ROMEOVILLE*    SUNNY     66  27  22 SW121     29.98F TC  19           
LANSING*       PTSUNNY   65  36  33 SW21G26   30.00F TC  19           
NORTHERLY ISL*   N/A     65  19  17 S17         N/A  TC  18           
$$


SKY/WX - Weather  TMP - Temperature  DP - Dew Point  RH - Humidity
WIND - Wind Direction/Speed PRES - Barometric Pressure VSB - Visibility
WCI - Wind Chill Index E13G22 Wind - East Wind 13 mph/Gusts of 22 mph

Trending Headlines

Trending Entertainment Headlines

Waukegan Radar Loop

Use the map search tool if you want to place a location marker on the radar map...

Waukegan Quick Facts

National Two Day Weather Forecast


E-mail the Waukegan Weather Forecast

Voice your opinion or tell us about page issues...